Time,TemperatureF,DewpointF,PressureIn,WindDirection,WindDirectionDegrees,WindSpeedMPH,WindSpeedGustMPH,Humidity,HourlyPrecipIn,Conditions,Clouds,dailyrainin,SoftwareType,DateUTC
2013-02-05 00:00:00,32.5,28.2,29.95,SW,234,0.0,0.0,84,0.00,,---,0.00,VWS V14.01,2013-02-05 05:00:00,
2013-02-05 00:05:00,32.3,28.0,29.95,SW,234,0.0,0.0,84,0.00,,---,0.00,VWS V14.01,2013-02-05 05:05:00,
2013-02-05 00:10:00,32.0,27.7,29.95,SW,234,0.0,0.0,84,0.00,,---,0.00,VWS V14.01,2013-02-05 05:10:00,
2013-02-05 00:15:00,31.9,27.9,29.95,SW,234,0.0,1.0,85,0.00,,---,0.00,VWS V14.01,2013-02-05 05:15:00,
2013-02-05 00:20:00,31.8,28.1,29.94,SW,234,0.0,1.0,86,0.00,,---,0.00,VWS V14.01,2013-02-05 05:20:00,
2013-02-05 00:25:00,31.8,28.4,29.94,SW,234,0.0,1.0,87,0.00,,---,0.00,VWS V14.01,2013-02-05 05:25:00,
2013-02-05 00:30:00,31.9,28.5,29.94,SW,234,0.0,1.0,87,0.00,,---,0.00,VWS V14.01,2013-02-05 05:30:00,
2013-02-05 00:35:00,31.9,28.8,29.93,SW,234,0.0,0.0,88,0.00,,---,0.00,VWS V14.01,2013-02-05 05:35:00,
2013-02-05 00:40:00,32.1,29.0,29.93,SW,234,0.0,0.0,88,0.00,,---,0.00,VWS V14.01,2013-02-05 05:40:00,
2013-02-05 00:45:00,32.3,29.1,29.93,SW,234,0.0,0.0,88,0.00,,---,0.00,VWS V14.01,2013-02-05 05:45:00,
2013-02-05 00:50:00,32.4,29.2,29.93,SW,234,0.0,0.0,88,0.00,,---,0.00,VWS V14.01,2013-02-05 05:50:00,
2013-02-05 00:55:00,32.6,29.7,29.93,SW,234,0.0,0.0,89,0.00,,---,0.00,VWS V14.01,2013-02-05 05:55:00,
2013-02-05 01:00:00,32.8,29.9,29.93,SW,234,0.0,0.0,89,0.00,,---,0.00,VWS V14.01,2013-02-05 06:00:00,
2013-02-05 01:05:00,33.1,30.2,29.92,SW,234,0.0,0.0,89,0.00,,---,0.00,VWS V14.01,2013-02-05 06:05:00,
2013-02-05 01:10:00,33.3,30.4,29.92,SW,234,0.0,0.0,89,0.00,,---,0.00,VWS V14.01,2013-02-05 06:10:00,
2013-02-05 01:15:00,33.5,30.3,29.92,SW,234,0.0,0.0,88,0.00,,---,0.00,VWS V14.01,2013-02-05 06:15:00,
2013-02-05 01:20:00,33.7,30.5,29.92,SW,234,0.0,0.0,88,0.00,,---,0.00,VWS V14.01,2013-02-05 06:20:00,
2013-02-05 01:25:00,33.9,30.7,29.92,SW,234,0.0,2.0,88,0.00,,---,0.00,VWS V14.01,2013-02-05 06:25:00,
2013-02-05 01:30:00,34.1,30.6,29.92,SW,234,0.0,2.0,87,0.00,,---,0.00,VWS V14.01,2013-02-05 06:30:00,
2013-02-05 01:35:00,34.2,30.7,29.91,SW,234,0.0,0.0,87,0.00,,---,0.00,VWS V14.01,2013-02-05 06:35:00,
2013-02-05 01:40:00,34.3,30.8,29.91,SW,234,0.0,0.0,87,0.00,,---,0.00,VWS V14.01,2013-02-05 06:40:00,
2013-02-05 01:45:00,34.3,30.8,29.91,SW,234,0.0,0.0,87,0.00,,---,0.00,VWS V14.01,2013-02-05 06:45:00,
2013-02-05 01:50:00,34.5,30.8,29.91,SW,234,0.0,1.0,86,0.00,,---,0.00,VWS V14.01,2013-02-05 06:50:00,
2013-02-05 01:55:00,34.7,31.0,29.91,SW,234,0.0,1.0,86,0.00,,---,0.00,VWS V14.01,2013-02-05 06:55:00,
2013-02-05 02:00:00,34.8,31.0,29.91,SW,234,0.0,1.0,86,0.00,,---,0.00,VWS V14.01,2013-02-05 07:00:00,
2013-02-05 02:05:00,35.0,31.2,29.90,SW,234,0.0,0.0,86,0.00,,---,0.00,VWS V14.01,2013-02-05 07:05:00,
2013-02-05 02:10:00,35.1,31.3,29.90,SW,234,0.0,0.0,86,0.00,,---,0.00,VWS V14.01,2013-02-05 07:10:00,
2013-02-05 02:15:00,35.2,31.4,29.90,SW,234,0.0,0.0,86,0.00,,---,0.00,VWS V14.01,2013-02-05 07:15:00,
2013-02-05 02:20:00,35.4,31.6,29.89,SW,234,0.0,1.0,86,0.00,,---,0.00,VWS V14.01,2013-02-05 07:20:00,
2013-02-05 02:25:00,35.5,31.7,29.89,SW,234,0.0,1.0,86,0.00,,---,0.00,VWS V14.01,2013-02-05 07:25:00,
2013-02-05 02:30:00,35.6,31.5,29.89,SW,234,0.0,1.0,85,0.00,,---,0.00,VWS V14.01,2013-02-05 07:30:00,
2013-02-05 02:35:00,35.6,31.5,29.90,SW,234,0.0,2.0,85,0.00,,---,0.00,VWS V14.01,2013-02-05 07:35:00,
2013-02-05 02:40:00,35.7,31.6,29.89,SW,234,0.0,2.0,85,0.00,,---,0.00,VWS V14.01,2013-02-05 07:40:00,
2013-02-05 02:45:00,35.7,31.6,29.89,SW,234,0.0,2.0,85,0.00,,---,0.00,VWS V14.01,2013-02-05 07:45:00,
2013-02-05 02:50:00,35.8,31.7,29.89,SW,234,0.0,2.0,85,0.00,,---,0.00,VWS V14.01,2013-02-05 07:50:00,
2013-02-05 02:55:00,35.9,31.8,29.89,SW,234,0.0,2.0,85,0.00,,---,0.00,VWS V14.01,2013-02-05 07:55:00,
2013-02-05 03:00:00,35.9,31.8,29.88,SW,234,0.0,2.0,85,0.00,,---,0.00,VWS V14.01,2013-02-05 08:00:00,
2013-02-05 03:05:00,35.9,31.8,29.88,SW,234,0.0,0.0,85,0.00,,---,0.00,VWS V14.01,2013-02-05 08:05:00,
2013-02-05 03:10:00,35.9,31.8,29.88,SW,234,0.0,1.0,85,0.00,,---,0.00,VWS V14.01,2013-02-05 08:10:00,
2013-02-05 03:15:00,35.9,31.8,29.88,SW,234,0.0,1.0,85,0.00,,---,0.00,VWS V14.01,2013-02-05 08:15:00,
2013-02-05 03:20:00,35.8,31.7,29.88,SW,234,0.0,1.0,85,0.00,,---,0.00,VWS V14.01,2013-02-05 08:20:00,
2013-02-05 03:25:00,35.8,31.7,29.88,SW,234,0.0,1.0,85,0.00,,---,0.00,VWS V14.01,2013-02-05 08:25:00,
2013-02-05 03:30:00,35.8,31.7,29.88,WSW,250,0.0,1.0,85,0.00,,---,0.00,VWS V14.01,2013-02-05 08:30:00,
2013-02-05 03:35:00,35.8,31.7,29.88,WSW,250,0.0,0.0,85,0.00,,---,0.00,VWS V14.01,2013-02-05 08:35:00,
2013-02-05 03:40:00,35.8,31.7,29.88,WSW,250,0.0,1.0,85,0.00,,---,0.00,VWS V14.01,2013-02-05 08:40:00,
2013-02-05 03:45:00,35.8,31.7,29.88,WSW,250,0.0,1.0,85,0.00,,---,0.00,VWS V14.01,2013-02-05 08:45:00,
2013-02-05 03:50:00,35.8,31.7,29.88,WSW,250,0.0,1.0,85,0.00,,---,0.00,VWS V14.01,2013-02-05 08:50:00,
2013-02-05 03:55:00,35.8,31.7,29.88,WSW,250,0.0,1.0,85,0.00,,---,0.00,VWS V14.01,2013-02-05 08:55:00,
2013-02-05 04:00:00,35.8,31.7,29.88,WSW,250,0.0,1.0,85,0.00,,---,0.00,VWS V14.01,2013-02-05 09:00:00,
2013-02-05 04:05:00,35.7,31.9,29.88,WSW,250,0.0,0.0,86,0.00,,---,0.00,VWS V14.01,2013-02-05 09:05:00,
2013-02-05 04:10:00,35.7,31.9,29.88,WSW,250,0.0,0.0,86,0.00,,---,0.00,VWS V14.01,2013-02-05 09:10:00,
2013-02-05 04:15:00,35.6,31.8,29.88,WSW,250,0.0,0.0,86,0.00,,---,0.00,VWS V14.01,2013-02-05 09:15:00,
2013-02-05 04:20:00,35.6,31.8,29.88,WSW,250,0.0,0.0,86,0.00,,---,0.00,VWS V14.01,2013-02-05 09:20:00,
2013-02-05 04:25:00,35.6,32.1,29.88,WSW,250,0.0,0.0,87,0.00,,---,0.00,VWS V14.01,2013-02-05 09:25:00,
2013-02-05 04:30:00,35.6,31.8,29.88,WSW,250,0.0,0.0,86,0.00,,---,0.00,VWS V14.01,2013-02-05 09:30:00,
2013-02-05 04:35:00,35.6,31.8,29.88,WSW,250,0.0,0.0,86,0.00,,---,0.00,VWS V14.01,2013-02-05 09:35:00,
2013-02-05 04:40:00,35.7,31.9,29.88,WSW,250,0.0,0.0,86,0.00,,---,0.00,VWS V14.01,2013-02-05 09:40:00,
2013-02-05 04:45:00,35.8,32.0,29.88,WSW,250,0.0,0.0,86,0.00,,---,0.00,VWS V14.01,2013-02-05 09:45:00,
2013-02-05 04:50:00,35.9,32.1,29.88,WSW,250,0.0,0.0,86,0.00,,---,0.00,VWS V14.01,2013-02-05 09:50:00,
2013-02-05 04:55:00,36.0,31.9,29.88,WSW,250,0.0,0.0,85,0.00,,---,0.00,VWS V14.01,2013-02-05 09:55:00,
2013-02-05 05:00:00,36.0,31.9,29.87,WSW,250,0.0,0.0,85,0.00,,---,0.00,VWS V14.01,2013-02-05 10:00:00,
2013-02-05 05:05:00,36.1,31.7,29.88,WSW,250,0.0,0.0,84,0.00,,---,0.00,VWS V14.01,2013-02-05 10:05:00,
2013-02-05 05:10:00,36.1,31.7,29.88,WSW,250,0.0,1.0,84,0.00,,---,0.00,VWS V14.01,2013-02-05 10:10:00,
2013-02-05 05:15:00,36.1,31.7,29.88,WSW,250,0.0,1.0,84,0.00,,---,0.00,VWS V14.01,2013-02-05 10:15:00,
2013-02-05 05:20:00,36.1,31.7,29.88,West,266,2.0,3.0,84,0.00,,---,0.00,VWS V14.01,2013-02-05 10:20:00,
2013-02-05 05:25:00,36.1,31.7,29.88,West,266,0.0,3.0,84,0.00,,---,0.00,VWS V14.01,2013-02-05 10:25:00,
2013-02-05 05:30:00,36.2,31.5,29.88,West,266,0.0,3.0,83,0.00,,---,0.00,VWS V14.01,2013-02-05 10:30:00,
2013-02-05 05:35:00,36.2,31.5,29.88,West,266,0.0,0.0,83,0.00,,---,0.00,VWS V14.01,2013-02-05 10:35:00,
2013-02-05 05:40:00,36.2,31.5,29.88,West,266,0.0,0.0,83,0.00,,---,0.00,VWS V14.01,2013-02-05 10:40:00,
2013-02-05 05:45:00,36.2,31.5,29.89,West,266,0.0,0.0,83,0.00,,---,0.00,VWS V14.01,2013-02-05 10:45:00,
2013-02-05 05:50:00,36.2,31.2,29.89,West,266,0.0,1.0,82,0.00,,---,0.00,VWS V14.01,2013-02-05 10:50:00,
2013-02-05 05:55:00,36.2,31.5,29.89,West,266,0.0,1.0,83,0.00,,---,0.00,VWS V14.01,2013-02-05 10:55:00,
2013-02-05 06:00:00,36.2,31.8,29.89,West,266,0.0,1.0,84,0.00,,---,0.00,VWS V14.01,2013-02-05 11:00:00,
2013-02-05 06:05:00,36.1,31.7,29.89,West,266,0.0,0.0,84,0.00,,---,0.00,VWS V14.01,2013-02-05 11:05:00,
2013-02-05 06:10:00,36.0,31.6,29.90,West,266,0.0,0.0,84,0.00,,---,0.00,VWS V14.01,2013-02-05 11:10:00,
2013-02-05 06:15:00,35.9,31.5,29.89,West,266,0.0,0.0,84,0.00,,---,0.00,VWS V14.01,2013-02-05 11:15:00,
2013-02-05 06:20:00,35.8,31.5,29.90,West,266,0.0,0.0,84,0.00,,---,0.00,VWS V14.01,2013-02-05 11:20:00,
2013-02-05 06:25:00,35.7,31.4,29.90,West,266,0.0,0.0,84,0.00,,---,0.00,VWS V14.01,2013-02-05 11:25:00,
2013-02-05 06:30:00,35.7,31.4,29.90,West,266,0.0,0.0,84,0.00,,---,0.00,VWS V14.01,2013-02-05 11:30:00,
2013-02-05 06:35:00,35.6,31.2,29.90,West,266,0.0,0.0,84,0.00,,---,0.00,VWS V14.01,2013-02-05 11:35:00,
2013-02-05 06:40:00,35.5,31.1,29.90,West,266,0.0,0.0,84,0.00,,---,0.00,VWS V14.01,2013-02-05 11:40:00,
2013-02-05 06:45:00,35.4,31.1,29.91,West,266,0.0,0.0,84,0.00,,---,0.00,VWS V14.01,2013-02-05 11:45:00,
2013-02-05 06:50:00,35.3,31.0,29.90,West,266,0.0,0.0,84,0.00,,---,0.00,VWS V14.01,2013-02-05 11:50:00,
2013-02-05 06:55:00,35.3,31.0,29.90,West,266,0.0,0.0,84,0.00,,---,0.00,VWS V14.01,2013-02-05 11:55:00,
2013-02-05 07:00:00,35.2,31.1,29.90,West,266,0.0,0.0,85,0.00,,---,0.00,VWS V14.01,2013-02-05 12:00:00,
2013-02-05 07:05:00,35.2,31.1,29.91,West,266,0.0,0.0,85,0.00,,---,0.00,VWS V14.01,2013-02-05 12:05:00,
2013-02-05 07:10:00,35.1,31.0,29.90,West,266,0.0,0.0,85,0.00,,---,0.00,VWS V14.01,2013-02-05 12:10:00,
2013-02-05 07:15:00,35.0,31.0,29.90,West,266,0.0,0.0,85,0.00,,---,0.00,VWS V14.01,2013-02-05 12:15:00,
2013-02-05 07:20:00,35.0,31.0,29.90,West,266,0.0,0.0,85,0.00,,---,0.00,VWS V14.01,2013-02-05 12:20:00,
2013-02-05 07:25:00,35.0,31.0,29.90,West,266,0.0,0.0,85,0.00,,---,0.00,VWS V14.01,2013-02-05 12:25:00,
2013-02-05 07:30:00,34.9,31.1,29.90,West,266,0.0,0.0,86,0.00,,---,0.00,VWS V14.01,2013-02-05 12:30:00,
2013-02-05 07:35:00,34.8,31.0,29.90,West,266,0.0,0.0,86,0.00,,---,0.00,VWS V14.01,2013-02-05 12:35:00,
2013-02-05 07:40:00,34.8,31.3,29.91,West,266,0.0,0.0,87,0.00,,---,0.00,VWS V14.01,2013-02-05 12:40:00,
2013-02-05 07:45:00,34.8,31.3,29.91,West,266,0.0,0.0,87,0.00,,---,0.00,VWS V14.01,2013-02-05 12:45:00,
2013-02-05 07:50:00,34.8,31.3,29.92,West,266,0.0,0.0,87,0.00,,---,0.00,VWS V14.01,2013-02-05 12:50:00,
2013-02-05 07:55:00,34.8,31.3,29.92,West,266,0.0,0.0,87,0.00,,---,0.00,VWS V14.01,2013-02-05 12:55:00,
2013-02-05 08:00:00,34.9,31.4,29.92,West,266,0.0,0.0,87,0.00,,---,0.00,VWS V14.01,2013-02-05 13:00:00,
2013-02-05 08:05:00,35.0,31.5,29.92,West,266,0.0,0.0,87,0.00,,---,0.00,VWS V14.01,2013-02-05 13:05:00,
2013-02-05 08:10:00,35.1,31.9,29.92,West,266,0.0,0.0,88,0.00,,---,0.00,VWS V14.01,2013-02-05 13:10:00,
2013-02-05 08:15:00,35.3,32.4,29.92,West,266,0.0,0.0,89,0.00,,---,0.00,VWS V14.01,2013-02-05 13:15:00,
2013-02-05 08:20:00,35.5,32.6,29.91,West,266,0.0,0.0,89,0.00,,---,0.00,VWS V14.01,2013-02-05 13:20:00,
2013-02-05 08:25:00,35.9,33.0,29.92,West,266,0.0,0.0,89,0.00,,---,0.00,VWS V14.01,2013-02-05 13:25:00,
2013-02-05 08:30:00,36.2,33.3,29.92,West,266,0.0,1.0,89,0.00,,---,0.00,VWS V14.01,2013-02-05 13:30:00,
2013-02-05 08:35:00,36.7,32.9,29.92,SSW,205,0.0,2.0,86,0.00,,---,0.00,VWS V14.01,2013-02-05 13:35:00,
2013-02-05 08:40:00,37.2,32.8,29.92,SSW,205,0.0,2.0,84,0.00,,---,0.00,VWS V14.01,2013-02-05 13:40:00,
2013-02-05 08:45:00,37.8,33.1,29.93,SW,230,0.0,3.0,83,0.00,,---,0.00,VWS V14.01,2013-02-05 13:45:00,
2013-02-05 08:50:00,38.4,33.4,29.92,SW,230,0.0,3.0,82,0.00,,---,0.00,VWS V14.01,2013-02-05 13:50:00,
2013-02-05 08:55:00,38.8,33.5,29.92,SW,230,1.0,3.0,81,0.00,,---,0.00,VWS V14.01,2013-02-05 13:55:00,
2013-02-05 09:00:00,39.4,33.8,29.92,SW,230,1.0,3.0,80,0.00,,---,0.00,VWS V14.01,2013-02-05 14:00:00,
2013-02-05 09:05:00,39.8,34.1,29.93,SW,230,2.0,2.0,80,0.00,,---,0.00,VWS V14.01,2013-02-05 14:05:00,
2013-02-05 09:10:00,40.4,34.1,29.92,West,281,1.0,2.0,78,0.00,,---,0.00,VWS V14.01,2013-02-05 14:10:00,
2013-02-05 09:15:00,40.9,33.9,29.92,West,281,0.0,2.0,76,0.00,,---,0.00,VWS V14.01,2013-02-05 14:15:00,
2013-02-05 09:20:00,41.3,34.0,29.92,West,281,0.0,2.0,75,0.00,,---,0.00,VWS V14.01,2013-02-05 14:20:00,
2013-02-05 09:25:00,41.8,34.1,29.92,West,281,0.0,2.0,74,0.00,,---,0.00,VWS V14.01,2013-02-05 14:25:00,
2013-02-05 09:30:00,42.6,34.9,29.92,West,281,0.0,3.0,74,0.00,,---,0.00,VWS V14.01,2013-02-05 14:30:00,
2013-02-05 09:35:00,43.3,34.5,29.92,WSW,237,0.0,5.0,71,0.00,,---,0.00,VWS V14.01,2013-02-05 14:35:00,
2013-02-05 09:40:00,43.8,35.0,29.91,WNW,282,1.0,5.0,71,0.00,,---,0.00,VWS V14.01,2013-02-05 14:40:00,
2013-02-05 09:45:00,44.3,35.5,29.92,WNW,282,1.0,5.0,71,0.00,,---,0.00,VWS V14.01,2013-02-05 14:45:00,
2013-02-05 09:50:00,44.9,35.4,29.91,SW,234,2.0,5.0,69,0.00,,---,0.00,VWS V14.01,2013-02-05 14:50:00,
2013-02-05 09:55:00,45.5,35.6,29.92,WSW,258,4.0,5.0,68,0.00,,---,0.00,VWS V14.01,2013-02-05 14:55:00,
2013-02-05 10:00:00,46.1,35.8,29.92,WSW,244,1.0,5.0,67,0.00,,---,0.00,VWS V14.01,2013-02-05 15:00:00,
2013-02-05 10:05:00,46.7,35.2,29.92,SW,217,1.0,7.0,64,0.00,,---,0.00,VWS V14.01,2013-02-05 15:05:00,
2013-02-05 10:10:00,47.2,35.3,29.92,WNW,299,0.0,7.0,63,0.00,,---,0.00,VWS V14.01,2013-02-05 15:10:00,
2013-02-05 10:15:00,47.6,35.6,29.92,WNW,288,3.0,7.0,63,0.00,,---,0.00,VWS V14.01,2013-02-05 15:15:00,
2013-02-05 10:20:00,47.9,35.5,29.92,SW,235,0.0,7.0,62,0.00,,---,0.00,VWS V14.01,2013-02-05 15:20:00,
2013-02-05 10:25:00,48.2,35.4,29.92,WNW,288,2.0,7.0,61,0.00,,---,0.00,VWS V14.01,2013-02-05 15:25:00,
2013-02-05 10:30:00,48.5,35.7,29.92,WNW,302,0.0,8.0,61,0.00,,---,0.00,VWS V14.01,2013-02-05 15:30:00,
2013-02-05 10:35:00,48.8,35.1,29.92,West,270,3.0,9.0,59,0.00,,---,0.00,VWS V14.01,2013-02-05 15:35:00,
2013-02-05 10:40:00,49.0,35.3,29.92,NW,304,1.0,9.0,59,0.00,,---,0.00,VWS V14.01,2013-02-05 15:40:00,
2013-02-05 10:45:00,49.2,35.9,29.92,West,268,2.0,9.0,60,0.00,,---,0.00,VWS V14.01,2013-02-05 15:45:00,
2013-02-05 10:50:00,49.5,35.8,29.92,WNW,299,2.0,9.0,59,0.00,,---,0.00,VWS V14.01,2013-02-05 15:50:00,
2013-02-05 10:55:00,49.7,36.0,29.92,WNW,290,2.0,9.0,59,0.00,,---,0.00,VWS V14.01,2013-02-05 15:55:00,
2013-02-05 11:00:00,50.0,36.2,29.92,WNW,294,0.0,9.0,59,0.00,,---,0.00,VWS V14.01,2013-02-05 16:00:00,
2013-02-05 11:05:00,50.3,36.5,29.92,WNW,284,2.0,3.0,59,0.00,,---,0.00,VWS V14.01,2013-02-05 16:05:00,
2013-02-05 11:10:00,50.6,36.4,29.92,West,269,2.0,5.0,58,0.00,,---,0.00,VWS V14.01,2013-02-05 16:10:00,
2013-02-05 11:15:00,50.9,36.2,29.91,SSW,200,3.0,6.0,57,0.00,,---,0.00,VWS V14.01,2013-02-05 16:15:00,
2013-02-05 11:20:00,51.1,36.0,29.91,WNW,290,1.0,6.0,56,0.00,,---,0.00,VWS V14.01,2013-02-05 16:20:00,
2013-02-05 11:25:00,51.3,36.2,29.91,WSW,251,3.0,6.0,56,0.00,,---,0.00,VWS V14.01,2013-02-05 16:25:00,
2013-02-05 11:30:00,51.5,35.9,29.91,SSW,199,1.0,7.0,55,0.00,,---,0.00,VWS V14.01,2013-02-05 16:30:00,
2013-02-05 11:35:00,51.9,35.8,29.91,West,259,1.0,6.0,54,0.00,,---,0.00,VWS V14.01,2013-02-05 16:35:00,
2013-02-05 11:40:00,52.0,35.9,29.90,SW,232,0.0,6.0,54,0.00,,---,0.00,VWS V14.01,2013-02-05 16:40:00,
2013-02-05 11:45:00,52.3,35.7,29.90,West,261,3.0,6.0,53,0.00,,---,0.00,VWS V14.01,2013-02-05 16:45:00,
2013-02-05 11:50:00,52.7,36.5,29.90,WNW,297,0.0,6.0,54,0.00,,---,0.00,VWS V14.01,2013-02-05 16:50:00,
2013-02-05 11:55:00,53.0,35.9,29.89,SSW,196,3.0,6.0,52,0.00,,---,0.00,VWS V14.01,2013-02-05 16:55:00,
2013-02-05 12:00:00,53.3,36.1,29.89,West,271,1.0,6.0,52,0.00,,---,0.00,VWS V14.01,2013-02-05 17:00:00,
2013-02-05 12:05:00,53.7,37.0,29.89,WNW,282,4.0,4.0,53,0.00,,---,0.00,VWS V14.01,2013-02-05 17:05:00,
2013-02-05 12:10:00,54.0,36.3,29.89,West,277,3.0,4.0,51,0.00,,---,0.00,VWS V14.01,2013-02-05 17:10:00,
2013-02-05 12:15:00,54.2,37.0,29.89,WNW,287,0.0,4.0,52,0.00,,---,0.00,VWS V14.01,2013-02-05 17:15:00,
2013-02-05 12:20:00,54.3,36.6,29.88,WNW,287,0.0,4.0,51,0.00,,---,0.00,VWS V14.01,2013-02-05 17:20:00,
2013-02-05 12:25:00,54.4,36.7,29.88,NW,318,2.0,4.0,51,0.00,,---,0.00,VWS V14.01,2013-02-05 17:25:00,
2013-02-05 12:30:00,54.6,37.3,29.87,NW,318,0.0,4.0,52,0.00,,---,0.00,VWS V14.01,2013-02-05 17:30:00,
2013-02-05 12:35:00,55.2,37.4,29.86,SW,232,2.0,4.0,51,0.00,,---,0.00,VWS V14.01,2013-02-05 17:35:00,
2013-02-05 12:40:00,55.7,36.8,29.86,South,189,0.0,5.0,49,0.00,,---,0.00,VWS V14.01,2013-02-05 17:40:00,
2013-02-05 12:45:00,56.0,37.1,29.86,SSW,192,3.0,5.0,49,0.00,,---,0.00,VWS V14.01,2013-02-05 17:45:00,
2013-02-05 12:50:00,56.4,37.0,29.86,WNW,302,0.0,5.0,48,0.00,,---,0.00,VWS V14.01,2013-02-05 17:50:00,
2013-02-05 12:55:00,56.8,37.9,29.86,WNW,286,1.0,5.0,49,0.00,,---,0.00,VWS V14.01,2013-02-05 17:55:00,
2013-02-05 13:00:00,57.3,36.7,29.86,NW,314,1.0,5.0,46,0.00,,---,0.00,VWS V14.01,2013-02-05 18:00:00,
2013-02-05 13:05:00,57.5,36.9,29.85,WNW,296,1.0,3.0,46,0.00,,---,0.00,VWS V14.01,2013-02-05 18:05:00,
2013-02-05 13:10:00,57.5,37.5,29.84,WNW,295,0.0,3.0,47,0.00,,---,0.00,VWS V14.01,2013-02-05 18:10:00,
2013-02-05 13:15:00,57.6,36.4,29.84,WNW,286,2.0,5.0,45,0.00,,---,0.00,VWS V14.01,2013-02-05 18:15:00,
2013-02-05 13:20:00,57.9,36.1,29.84,WSW,239,3.0,5.0,44,0.00,,---,0.00,VWS V14.01,2013-02-05 18:20:00,
2013-02-05 13:25:00,58.2,35.8,29.84,WSW,245,5.0,6.0,43,0.00,,---,0.00,VWS V14.01,2013-02-05 18:25:00,
2013-02-05 13:30:00,58.6,36.2,29.84,SSW,204,1.0,6.0,43,0.00,,---,0.00,VWS V14.01,2013-02-05 18:30:00,
2013-02-05 13:35:00,58.9,35.9,29.84,SW,230,1.0,3.0,42,0.00,,---,0.00,VWS V14.01,2013-02-05 18:35:00,
2013-02-05 13:40:00,59.1,36.0,29.83,West,260,0.0,5.0,42,0.00,,---,0.00,VWS V14.01,2013-02-05 18:40:00,
2013-02-05 13:45:00,59.6,37.1,29.83,WNW,285,2.0,6.0,43,0.00,,---,0.00,VWS V14.01,2013-02-05 18:45:00,
2013-02-05 13:50:00,60.0,36.9,29.82,West,271,5.0,6.0,42,0.00,,---,0.00,VWS V14.01,2013-02-05 18:50:00,
2013-02-05 13:55:00,60.2,36.4,29.82,WSW,255,4.0,7.0,41,0.00,,---,0.00,VWS V14.01,2013-02-05 18:55:00,
2013-02-05 14:00:00,60.1,36.3,29.82,NW,313,2.0,7.0,41,0.00,,---,0.00,VWS V14.01,2013-02-05 19:00:00,
2013-02-05 14:05:00,60.4,35.3,29.82,SW,229,3.0,9.0,39,0.00,,---,0.00,VWS V14.01,2013-02-05 19:05:00,
2013-02-05 14:10:00,60.6,35.5,29.82,West,272,3.0,9.0,39,0.00,,---,0.00,VWS V14.01,2013-02-05 19:10:00,
2013-02-05 14:15:00,60.8,36.3,29.82,NW,306,9.0,9.0,40,0.00,,---,0.00,VWS V14.01,2013-02-05 19:15:00,
2013-02-05 14:20:00,61.0,35.9,29.82,NW,306,3.0,11.0,39,0.00,,---,0.00,VWS V14.01,2013-02-05 19:20:00,
2013-02-05 14:25:00,61.2,36.1,29.82,West,274,4.0,11.0,39,0.00,,---,0.00,VWS V14.01,2013-02-05 19:25:00,
2013-02-05 14:30:00,61.5,37.0,29.82,WNW,295,3.0,11.0,40,0.00,,---,0.00,VWS V14.01,2013-02-05 19:30:00,
2013-02-05 14:35:00,61.6,37.1,29.82,SW,236,4.0,7.0,40,0.00,,---,0.00,VWS V14.01,2013-02-05 19:35:00,
2013-02-05 14:40:00,61.8,37.9,29.82,West,271,4.0,7.0,41,0.00,,---,0.00,VWS V14.01,2013-02-05 19:40:00,
2013-02-05 14:45:00,62.0,37.4,29.82,SSW,197,5.0,7.0,40,0.00,,---,0.00,VWS V14.01,2013-02-05 19:45:00,
2013-02-05 14:50:00,62.1,36.9,29.82,WNW,291,3.0,7.0,39,0.00,,---,0.00,VWS V14.01,2013-02-05 19:50:00,
2013-02-05 14:55:00,62.1,37.5,29.81,NNW,333,4.0,7.0,40,0.00,,---,0.00,VWS V14.01,2013-02-05 19:55:00,
2013-02-05 15:00:00,62.1,37.5,29.82,WSW,244,2.0,7.0,40,0.00,,---,0.00,VWS V14.01,2013-02-05 20:00:00,
2013-02-05 15:05:00,62.2,37.6,29.81,West,279,3.0,7.0,40,0.00,,---,0.00,VWS V14.01,2013-02-05 20:05:00,
2013-02-05 15:10:00,62.3,37.7,29.81,WSW,238,2.0,7.0,40,0.00,,---,0.00,VWS V14.01,2013-02-05 20:10:00,
2013-02-05 15:15:00,62.4,37.8,29.81,SW,234,4.0,7.0,40,0.00,,---,0.00,VWS V14.01,2013-02-05 20:15:00,
2013-02-05 15:20:00,62.4,37.8,29.81,SW,229,3.0,7.0,40,0.00,,---,0.00,VWS V14.01,2013-02-05 20:20:00,
2013-02-05 15:25:00,62.3,38.3,29.81,WSW,247,3.0,7.0,41,0.00,,---,0.00,VWS V14.01,2013-02-05 20:25:00,
2013-02-05 15:30:00,62.4,38.4,29.81,SSW,204,4.0,7.0,41,0.00,,---,0.00,VWS V14.01,2013-02-05 20:30:00,
2013-02-05 15:35:00,62.3,38.3,29.81,WNW,292,3.0,6.0,41,0.00,,---,0.00,VWS V14.01,2013-02-05 20:35:00,
2013-02-05 15:40:00,62.3,38.3,29.81,West,275,2.0,6.0,41,0.00,,---,0.00,VWS V14.01,2013-02-05 20:40:00,
2013-02-05 15:45:00,62.3,38.3,29.81,WNW,296,3.0,10.0,41,0.00,,---,0.00,VWS V14.01,2013-02-05 20:45:00,
2013-02-05 15:50:00,62.2,38.2,29.81,NW,314,3.0,10.0,41,0.00,,---,0.00,VWS V14.01,2013-02-05 20:50:00,
2013-02-05 15:55:00,62.2,38.2,29.81,WNW,299,2.0,10.0,41,0.00,,---,0.00,VWS V14.01,2013-02-05 20:55:00,
2013-02-05 16:00:00,62.1,38.1,29.81,NW,322,2.0,10.0,41,0.00,,---,0.00,VWS V14.01,2013-02-05 21:00:00,
2013-02-05 16:05:00,62.1,38.8,29.82,NW,313,1.0,11.0,42,0.00,,---,0.00,VWS V14.01,2013-02-05 21:05:00,
2013-02-05 16:10:00,62.1,38.8,29.81,NW,310,2.0,11.0,42,0.00,,---,0.00,VWS V14.01,2013-02-05 21:10:00,
2013-02-05 16:15:00,62.1,38.8,29.81,SW,236,2.0,11.0,42,0.00,,---,0.00,VWS V14.01,2013-02-05 21:15:00,
2013-02-05 16:20:00,62.1,38.8,29.81,NW,306,3.0,11.0,42,0.00,,---,0.00,VWS V14.01,2013-02-05 21:20:00,
2013-02-05 16:25:00,62.1,38.1,29.82,WNW,290,3.0,11.0,41,0.00,,---,0.00,VWS V14.01,2013-02-05 21:25:00,
2013-02-05 16:30:00,62.1,38.8,29.82,WNW,290,3.0,11.0,42,0.00,,---,0.00,VWS V14.01,2013-02-05 21:30:00,
2013-02-05 16:35:00,62.0,39.3,29.82,SW,219,1.0,9.0,43,0.00,,---,0.00,VWS V14.01,2013-02-05 21:35:00,
2013-02-05 16:40:00,61.9,39.2,29.83,West,281,4.0,9.0,43,0.00,,---,0.00,VWS V14.01,2013-02-05 21:40:00,
2013-02-05 16:45:00,61.6,38.9,29.82,SSW,206,0.0,9.0,43,0.00,,---,0.00,VWS V14.01,2013-02-05 21:45:00,
2013-02-05 16:50:00,61.5,38.8,29.82,WNW,290,3.0,9.0,43,0.00,,---,0.00,VWS V14.01,2013-02-05 21:50:00,
2013-02-05 16:55:00,61.3,38.6,29.82,SSW,213,2.0,9.0,43,0.00,,---,0.00,VWS V14.01,2013-02-05 21:55:00,
2013-02-05 17:00:00,61.2,38.5,29.82,WNW,287,0.0,9.0,43,0.00,,---,0.00,VWS V14.01,2013-02-05 22:00:00,
2013-02-05 17:05:00,61.0,38.4,29.82,WNW,290,0.0,4.0,43,0.00,,---,0.00,VWS V14.01,2013-02-05 22:05:00,
2013-02-05 17:10:00,60.8,37.6,29.82,West,263,2.0,4.0,42,0.00,,---,0.00,VWS V14.01,2013-02-05 22:10:00,
2013-02-05 17:15:00,60.6,38.0,29.82,West,261,1.0,4.0,43,0.00,,---,0.00,VWS V14.01,2013-02-05 22:15:00,
2013-02-05 17:20:00,60.4,37.8,29.82,SW,227,0.0,6.0,43,0.00,,---,0.00,VWS V14.01,2013-02-05 22:20:00,
2013-02-05 17:25:00,60.2,38.2,29.82,WSW,252,0.0,6.0,44,0.00,,---,0.00,VWS V14.01,2013-02-05 22:25:00,
2013-02-05 17:30:00,60.0,38.0,29.82,West,271,0.0,6.0,44,0.00,,---,0.00,VWS V14.01,2013-02-05 22:30:00,
2013-02-05 17:35:00,59.7,38.3,29.82,West,271,0.0,0.0,45,0.00,,---,0.00,VWS V14.01,2013-02-05 22:35:00,
2013-02-05 17:40:00,59.5,39.3,29.82,West,271,0.0,0.0,47,0.00,,---,0.00,VWS V14.01,2013-02-05 22:40:00,
2013-02-05 17:45:00,59.1,38.4,29.82,West,271,0.0,0.0,46,0.00,,---,0.00,VWS V14.01,2013-02-05 22:45:00,
2013-02-05 17:50:00,58.6,38.5,29.82,West,271,0.0,1.0,47,0.00,,---,0.00,VWS V14.01,2013-02-05 22:50:00,
2013-02-05 17:55:00,58.2,38.6,29.82,West,271,0.0,1.0,48,0.00,,---,0.00,VWS V14.01,2013-02-05 22:55:00,
2013-02-05 18:00:00,57.7,38.7,29.82,West,271,0.0,1.0,49,0.00,,---,0.00,VWS V14.01,2013-02-05 23:00:00,
2013-02-05 18:05:00,57.3,38.8,29.82,West,271,0.0,0.0,50,0.00,,---,0.00,VWS V14.01,2013-02-05 23:05:00,
2013-02-05 18:10:00,56.7,38.3,29.82,West,271,0.0,0.0,50,0.00,,---,0.00,VWS V14.01,2013-02-05 23:10:00,
2013-02-05 18:15:00,56.1,39.2,29.82,West,271,0.0,0.0,53,0.00,,---,0.00,VWS V14.01,2013-02-05 23:15:00,
2013-02-05 18:20:00,55.3,39.4,29.82,West,271,0.0,0.0,55,0.00,,---,0.00,VWS V14.01,2013-02-05 23:20:00,
2013-02-05 18:25:00,54.2,39.3,29.83,West,271,0.0,1.0,57,0.00,,---,0.00,VWS V14.01,2013-02-05 23:25:00,
2013-02-05 18:30:00,53.3,38.9,29.82,West,271,0.0,1.0,58,0.00,,---,0.00,VWS V14.01,2013-02-05 23:30:00,
2013-02-05 18:35:00,52.7,38.8,29.83,West,271,0.0,0.0,59,0.00,,---,0.00,VWS V14.01,2013-02-05 23:35:00,
2013-02-05 18:40:00,52.2,38.8,29.83,West,271,0.0,0.0,60,0.00,,---,0.00,VWS V14.01,2013-02-05 23:40:00,
2013-02-05 18:45:00,51.5,38.9,29.84,West,271,0.0,0.0,62,0.00,,---,0.00,VWS V14.01,2013-02-05 23:45:00,
2013-02-05 18:50:00,50.8,38.3,29.84,West,271,0.0,0.0,62,0.00,,---,0.00,VWS V14.01,2013-02-05 23:50:00,
2013-02-05 18:55:00,50.2,38.1,29.84,West,271,0.0,0.0,63,0.00,,---,0.00,VWS V14.01,2013-02-05 23:55:00,
2013-02-05 19:00:00,49.6,38.3,29.84,West,271,0.0,0.0,65,0.00,,---,0.00,VWS V14.01,2013-02-06 00:00:00,
2013-02-05 19:05:00,49.1,38.2,29.84,West,271,0.0,0.0,66,0.00,,---,0.00,VWS V14.01,2013-02-06 00:05:00,
2013-02-05 19:10:00,48.6,38.2,29.84,West,271,0.0,0.0,67,0.00,,---,0.00,VWS V14.01,2013-02-06 00:10:00,
2013-02-05 19:15:00,48.2,38.2,29.84,West,271,0.0,0.0,68,0.00,,---,0.00,VWS V14.01,2013-02-06 00:15:00,
2013-02-05 19:20:00,47.7,38.0,29.84,West,271,0.0,0.0,69,0.00,,---,0.00,VWS V14.01,2013-02-06 00:20:00,
2013-02-05 19:25:00,47.3,37.7,29.84,West,271,0.0,0.0,69,0.00,,---,0.00,VWS V14.01,2013-02-06 00:25:00,
2013-02-05 19:30:00,46.9,37.6,29.85,West,271,0.0,0.0,70,0.00,,---,0.00,VWS V14.01,2013-02-06 00:30:00,
2013-02-05 19:35:00,46.4,37.5,29.85,West,271,0.0,0.0,71,0.00,,---,0.00,VWS V14.01,2013-02-06 00:35:00,
2013-02-05 19:40:00,46.0,37.5,29.85,West,271,0.0,0.0,72,0.00,,---,0.00,VWS V14.01,2013-02-06 00:40:00,
2013-02-05 19:45:00,45.7,37.5,29.85,West,271,0.0,0.0,73,0.00,,---,0.00,VWS V14.01,2013-02-06 00:45:00,
2013-02-05 19:50:00,45.4,37.3,29.85,West,271,0.0,0.0,73,0.00,,---,0.00,VWS V14.01,2013-02-06 00:50:00,
2013-02-05 19:55:00,45.2,37.1,29.85,West,271,0.0,0.0,73,0.00,,---,0.00,VWS V14.01,2013-02-06 00:55:00,
2013-02-05 20:00:00,44.9,37.1,29.85,West,271,0.0,0.0,74,0.00,,---,0.00,VWS V14.01,2013-02-06 01:00:00,
2013-02-05 20:05:00,44.7,36.9,29.85,West,271,0.0,0.0,74,0.00,,---,0.00,VWS V14.01,2013-02-06 01:05:00,
2013-02-05 20:10:00,44.4,36.7,29.86,West,271,0.0,0.0,74,0.00,,---,0.00,VWS V14.01,2013-02-06 01:10:00,
2013-02-05 20:15:00,44.1,36.7,29.86,West,271,0.0,0.0,75,0.00,,---,0.00,VWS V14.01,2013-02-06 01:15:00,
2013-02-05 20:20:00,43.9,36.5,29.87,West,271,0.0,0.0,75,0.00,,---,0.00,VWS V14.01,2013-02-06 01:20:00,
2013-02-05 20:25:00,43.5,36.5,29.87,West,271,0.0,0.0,76,0.00,,---,0.00,VWS V14.01,2013-02-06 01:25:00,
2013-02-05 20:30:00,43.1,36.1,29.87,West,271,0.0,0.0,76,0.00,,---,0.00,VWS V14.01,2013-02-06 01:30:00,
2013-02-05 20:35:00,42.9,35.9,29.87,West,271,0.0,0.0,76,0.00,,---,0.00,VWS V14.01,2013-02-06 01:35:00,
2013-02-05 20:40:00,42.7,35.7,29.87,West,271,0.0,0.0,76,0.00,,---,0.00,VWS V14.01,2013-02-06 01:40:00,
2013-02-05 20:45:00,42.4,35.7,29.87,West,271,0.0,0.0,77,0.00,,---,0.00,VWS V14.01,2013-02-06 01:45:00,
2013-02-05 20:50:00,42.2,35.5,29.88,West,271,0.0,0.0,77,0.00,,---,0.00,VWS V14.01,2013-02-06 01:50:00,
2013-02-05 20:55:00,42.0,35.7,29.88,West,271,0.0,0.0,78,0.00,,---,0.00,VWS V14.01,2013-02-06 01:55:00,
2013-02-05 21:00:00,41.6,35.6,29.88,West,271,0.0,0.0,79,0.00,,---,0.00,VWS V14.01,2013-02-06 02:00:00,
2013-02-05 21:05:00,41.4,35.4,29.88,West,271,0.0,0.0,79,0.00,,---,0.00,VWS V14.01,2013-02-06 02:05:00,
2013-02-05 21:10:00,41.1,35.4,29.88,West,271,0.0,0.0,80,0.00,,---,0.00,VWS V14.01,2013-02-06 02:10:00,
2013-02-05 21:15:00,40.8,35.1,29.88,West,271,0.0,0.0,80,0.00,,---,0.00,VWS V14.01,2013-02-06 02:15:00,
2013-02-05 21:20:00,40.6,35.2,29.88,West,271,0.0,0.0,81,0.00,,---,0.00,VWS V14.01,2013-02-06 02:20:00,
2013-02-05 21:25:00,40.5,35.1,29.89,West,271,0.0,0.0,81,0.00,,---,0.00,VWS V14.01,2013-02-06 02:25:00,
2013-02-05 21:30:00,40.2,34.8,29.89,West,271,0.0,0.0,81,0.00,,---,0.00,VWS V14.01,2013-02-06 02:30:00,
2013-02-05 21:35:00,40.0,35.0,29.89,West,271,0.0,0.0,82,0.00,,---,0.00,VWS V14.01,2013-02-06 02:35:00,
2013-02-05 21:40:00,39.8,34.8,29.89,West,271,0.0,0.0,82,0.00,,---,0.00,VWS V14.01,2013-02-06 02:40:00,
2013-02-05 21:45:00,39.6,34.9,29.89,West,271,0.0,0.0,83,0.00,,---,0.00,VWS V14.01,2013-02-06 02:45:00,
2013-02-05 21:50:00,39.5,34.8,29.89,West,271,0.0,0.0,83,0.00,,---,0.00,VWS V14.01,2013-02-06 02:50:00,
2013-02-05 21:55:00,39.3,34.6,29.89,West,271,0.0,0.0,83,0.00,,---,0.00,VWS V14.01,2013-02-06 02:55:00,
2013-02-05 22:00:00,39.2,34.5,29.90,West,271,0.0,0.0,83,0.00,,---,0.00,VWS V14.01,2013-02-06 03:00:00,
2013-02-05 22:05:00,39.1,34.4,29.90,West,271,0.0,0.0,83,0.00,,---,0.00,VWS V14.01,2013-02-06 03:05:00,
2013-02-05 22:10:00,38.9,34.2,29.90,West,271,0.0,0.0,83,0.00,,---,0.00,VWS V14.01,2013-02-06 03:10:00,
2013-02-05 22:15:00,38.8,34.1,29.90,West,271,0.0,0.0,83,0.00,,---,0.00,VWS V14.01,2013-02-06 03:15:00,
2013-02-05 22:20:00,38.7,34.0,29.90,West,271,0.0,0.0,83,0.00,,---,0.00,VWS V14.01,2013-02-06 03:20:00,
2013-02-05 22:25:00,38.6,33.9,29.90,West,271,0.0,0.0,83,0.00,,---,0.00,VWS V14.01,2013-02-06 03:25:00,
2013-02-05 22:30:00,38.4,33.7,29.90,West,271,0.0,0.0,83,0.00,,---,0.00,VWS V14.01,2013-02-06 03:30:00,
2013-02-05 22:35:00,38.3,33.9,29.90,West,271,0.0,0.0,84,0.00,,---,0.00,VWS V14.01,2013-02-06 03:35:00,
2013-02-05 22:40:00,38.2,33.8,29.90,West,271,0.0,0.0,84,0.00,,---,0.00,VWS V14.01,2013-02-06 03:40:00,
2013-02-05 22:45:00,38.2,34.1,29.90,West,271,0.0,0.0,85,0.00,,---,0.00,VWS V14.01,2013-02-06 03:45:00,
2013-02-05 22:50:00,38.1,34.0,29.91,West,271,0.0,0.0,85,0.00,,---,0.00,VWS V14.01,2013-02-06 03:50:00,
2013-02-05 22:55:00,38.1,34.3,29.90,West,271,0.0,0.0,86,0.00,,---,0.00,VWS V14.01,2013-02-06 03:55:00,
2013-02-05 23:00:00,38.0,34.2,29.91,West,271,0.0,0.0,86,0.00,,---,0.00,VWS V14.01,2013-02-06 04:00:00,
2013-02-05 23:05:00,38.0,34.2,29.90,West,271,0.0,0.0,86,0.00,,---,0.00,VWS V14.01,2013-02-06 04:05:00,
2013-02-05 23:10:00,37.9,34.1,29.91,West,271,0.0,0.0,86,0.00,,---,0.00,VWS V14.01,2013-02-06 04:10:00,
2013-02-05 23:15:00,37.9,34.1,29.90,West,271,0.0,0.0,86,0.00,,---,0.00,VWS V14.01,2013-02-06 04:15:00,
2013-02-05 23:20:00,37.8,34.0,29.90,West,271,0.0,0.0,86,0.00,,---,0.00,VWS V14.01,2013-02-06 04:20:00,
2013-02-05 23:25:00,37.7,33.9,29.90,West,271,0.0,0.0,86,0.00,,---,0.00,VWS V14.01,2013-02-06 04:25:00,
2013-02-05 23:30:00,37.6,33.8,29.90,West,271,0.0,0.0,86,0.00,,---,0.00,VWS V14.01,2013-02-06 04:30:00,
2013-02-05 23:35:00,37.5,34.0,29.90,West,271,0.0,0.0,87,0.00,,---,0.00,VWS V14.01,2013-02-06 04:35:00,
2013-02-05 23:40:00,37.3,35.2,29.90,West,271,0.0,0.0,92,0.00,,---,0.00,VWS V14.01,2013-02-06 04:40:00,
2013-02-05 23:45:00,37.3,33.8,29.90,West,271,0.0,0.0,87,0.00,,---,0.00,VWS V14.01,2013-02-06 04:45:00,
2013-02-05 23:50:00,37.1,33.6,29.90,West,271,0.0,0.0,87,0.00,,---,0.00,VWS V14.01,2013-02-06 04:50:00,
2013-02-05 23:55:00,37.0,33.2,29.91,West,271,0.0,0.0,86,0.00,,---,0.00,VWS V14.01,2013-02-06 04:55:00,